GW0378 Weather Reports


time (UTC)temp
F
wind
direction
speed
knots
gust
knots
rain 1hr
in
rain 24hr
in
rain mn
in
humidity
%
barometer
mb
20260508121155 43 117 1.7 1.7 0.00 0.00 0.00 86 1016.0
20260508120652 43 114 0.9 2.6 0.00 0.00 0.00 85 1015.9
20260508120150 43 102 1.7 2.6 0.00 0.00 0.00 84 1016.1
20260508115648 43 104 2.6 2.6 0.00 0.00 0.00 84 1016.0
20260508115144 44 97 2.6 2.6 0.00 0.00 0.00 84 1016.0
20260508114641 44 131 0.0 1.7 0.00 0.00 0.00 83 1016.1
20260508114137 45 120 1.7 2.6 0.00 0.00 0.00 82 1016.0
20260508113635 44 90 1.7 2.6 0.00 0.00 0.00 83 1015.9
20260508113133 44 117 1.7 3.5 0.00 0.00 0.00 83 1015.8
20260508112629 44 114 0.0 1.7 0.00 0.00 0.00 83 1016.0
20260508112126 44 111 0.9 1.7 0.00 0.00 0.00 82 1015.9
20260508111622 44 135 0.0 2.6 0.00 0.00 0.00 83 1016.2
20260508111120 44 90 0.9 2.6 0.00 0.00 0.00 83 1016.1
20260508110618 44 101 1.7 1.7 0.00 0.00 0.00 82 1016.1
20260508110113 45 86 0.0 3.5 0.00 0.00 0.00 81 1015.9
20260508105608 45 113 2.6 5.2 0.00 0.00 0.00 81 1015.8
20260508105106 45 95 2.6 4.3 0.00 0.00 0.00 81 1015.9
20260508104603 45 107 3.5 3.5 0.00 0.00 0.00 81 1016.0
20260508104100 45 97 3.5 3.5 0.00 0.00 0.00 81 1016.1
20260508103557 46 103 2.6 3.5 0.00 0.00 0.00 79 1015.9
20260508103054 46 90 1.7 1.7 0.00 0.00 0.00 79 1015.9
20260508102552 46 120 0.9 2.6 0.00 0.00 0.00 79 1015.9
20260508102049 46 108 1.7 2.6 0.00 0.00 0.00 79 1015.8
20260508101546 47 124 1.7 4.3 0.00 0.00 0.00 77 1015.7
20260508101043 46 94 2.6 2.6 0.00 0.00 0.00 78 1015.7
20260508100542 46 103 1.7 2.6 0.00 0.00 0.00 79 1015.6
20260508100038 47 90 1.7 2.6 0.00 0.00 0.00 77 1015.7
20260508095535 47 84 2.6 2.6 0.00 0.00 0.00 77 1015.6
20260508095032 47 111 0.9 1.7 0.00 0.00 0.00 78 1015.4
20260508094529 46 85 1.7 1.7 0.00 0.00 0.00 78 1015.4
20260508094026 47 111 2.6 2.6 0.00 0.00 0.00 77 1015.6
20260508093523 47 106 2.6 2.6 0.00 0.00 0.00 77 1015.5
20260508093021 46 104 2.6 2.6 0.00 0.00 0.00 78 1015.6
20260508092518 46 95 1.7 1.7 0.00 0.00 0.00 78 1015.4
20260508092017 46 132 1.7 2.6 0.00 0.00 0.00 78 1015.2
20260508091513 47 121 1.7 2.6 0.00 0.00 0.00 77 1015.4
20260508091010 48 95 1.7 2.6 0.00 0.00 0.00 76 1015.4
20260508090508 48 107 1.7 2.6 0.00 0.00 0.00 75 1015.2
20260508090005 48 69 0.9 2.6 0.00 0.00 0.00 75 1015.5
20260508085501 48 109 1.7 1.7 0.00 0.00 0.00 74 1015.4
20260508084958 48 87 2.6 2.6 0.00 0.00 0.00 75 1015.5
20260508084455 47 97 0.9 2.6 0.00 0.00 0.00 76 1015.5
20260508083953 48 160 0.0 2.6 0.00 0.00 0.00 75 1015.5
20260508083449 47 115 2.6 4.3 0.00 0.00 0.00 76 1015.5
20260508082944 48 117 2.6 3.5 0.00 0.00 0.00 75 1015.2
20260508082442 48 118 3.5 4.3 0.00 0.00 0.00 74 1015.4
20260508081939 49 119 3.5 4.3 0.00 0.00 0.00 73 1015.4
20260508081436 48 96 4.3 5.2 0.00 0.00 0.00 74 1015.4
20260508080932 48 117 3.5 5.2 0.00 0.00 0.00 74 1015.4
20260508080431 49 72 2.6 4.3 0.00 0.00 0.00 73 1015.2
20260508075927 49 121 3.5 3.5 0.00 0.00 0.00 72 1015.2
20260508075424 49 109 2.6 4.3 0.00 0.00 0.00 72 1015.2
20260508074922 49 90 1.7 3.5 0.00 0.00 0.00 72 1015.2
20260508074419 50 101 2.6 3.5 0.00 0.00 0.00 70 1015.2
20260508073916 51 87 2.6 2.6 0.00 0.00 0.00 68 1015.1
20260508073414 52 105 1.7 1.7 0.00 0.00 0.00 66 1015.1
20260508072910 52 295 0.0 2.6 0.00 0.00 0.00 65 1015.4
20260508072406 51 82 0.9 1.7 0.00 0.00 0.00 67 1015.1
20260508071904 52 96 1.7 1.7 0.00 0.00 0.00 66 1015.2
20260508071402 52 117 0.9 1.7 0.00 0.00 0.00 66 1015.0
20260508070859 53 113 1.7 5.2 0.00 0.00 0.00 63 1015.0
20260508070357 53 102 3.5 7.8 0.00 0.00 0.00 62 1015.0
20260508065855 53 108 6.1 7.8 0.00 0.00 0.00 63 1015.1
20260508065353 53 74 5.2 6.1 0.00 0.00 0.00 63 1015.0
20260508064851 53 96 5.2 7.0 0.00 0.00 0.00 63 1015.0
20260508064348 53 105 5.2 7.8 0.00 0.00 0.00 62 1015.0
20260508063846 53 129 5.2 8.7 0.00 0.00 0.00 63 1015.1
20260508063343 53 94 4.3 6.1 0.00 0.00 0.00 63 1015.0
20260508062840 53 113 3.5 5.2 0.00 0.00 0.00 63 1014.9
20260508062337 53 95 5.2 5.2 0.00 0.00 0.00 63 1014.9
20260508061834 52 105 4.3 5.2 0.00 0.00 0.00 65 1015.0
20260508061332 51 105 4.3 4.3 0.00 0.00 0.00 66 1015.0
20260508060828 52 107 4.3 4.3 0.00 0.00 0.00 65 1015.1
20260508060326 52 101 3.5 4.3 0.00 0.00 0.00 64 1014.9
20260508055820 53 75 2.6 3.5 0.00 0.00 0.00 62 1015.0
20260508055319 53 73 2.6 3.5 0.00 0.00 0.00 61 1014.9
20260508054815 53 86 2.6 3.5 0.00 0.00 0.00 62 1014.9
20260508054313 53 105 2.6 3.5 0.00 0.00 0.00 61 1014.6
20260508053809 53 104 3.5 4.3 0.00 0.00 0.00 61 1014.8
20260508053307 53 94 1.7 4.3 0.00 0.00 0.00 61 1014.7
20260508052804 53 92 4.3 4.3 0.00 0.00 0.00 61 1014.5
20260508052301 54 105 2.6 3.5 0.00 0.00 0.00 60 1014.4
20260508051757 54 103 2.6 3.5 0.00 0.00 0.00 59 1014.5
20260508051252 54 99 2.6 2.6 0.00 0.00 0.00 59 1014.5
20260508050749 55 105 3.5 4.3 0.00 0.00 0.00 58 1014.5
20260508050246 55 105 3.5 3.5 0.00 0.00 0.00 57 1014.7
20260508045741 55 105 2.6 4.3 0.00 0.00 0.00 57 1014.6
20260508045240 55 102 2.6 4.3 0.00 0.00 0.00 57 1014.5
20260508044737 55 105 3.5 5.2 0.00 0.00 0.00 56 1014.5
20260508044234 55 103 1.7 2.6 0.00 0.00 0.00 57 1014.4
20260508043730 56 80 4.3 6.1 0.00 0.00 0.00 55 1014.2
20260508043228 56 170 1.7 4.3 0.00 0.00 0.00 56 1014.2
20260508042724 56 107 4.3 4.3 0.00 0.00 0.00 55 1014.1
20260508042221 56 93 2.6 3.5 0.00 0.00 0.00 56 1014.4
20260508041718 56 90 3.5 3.5 0.00 0.00 0.00 56 1014.4
20260508041215 56 93 2.6 3.5 0.00 0.00 0.00 55 1014.4
20260508040711 57 90 3.5 4.3 0.00 0.00 0.00 54 1014.1
20260508040208 57 112 2.6 4.3 0.00 0.00 0.00 54 1014.2
20260508035706 57 74 1.7 4.3 0.00 0.00 0.00 54 1014.0
20260508035203 57 99 2.6 4.3 0.00 0.00 0.00 54 1013.9
20260508034659 58 84 4.3 4.3 0.00 0.00 0.00 52 1013.9
20260508034156 59 106 3.5 4.3 0.00 0.00 0.00 52 1013.9
20260508033654 59 105 3.5 4.3 0.00 0.00 0.00 51 1013.9
20260508033152 60 148 1.7 3.5 0.00 0.00 0.00 48 1013.6
20260508032649 60 72 2.6 2.6 0.00 0.00 0.00 48 1013.7
20260508032146 61 81 0.0 0.9 0.00 0.00 0.00 46 1013.7
20260508031643 62 105 0.0 1.7 0.00 0.00 0.00 45 1013.2
20260508031139 62 174 0.0 0.9 0.00 0.00 0.00 45 1013.4
20260508030636 63 106 0.0 1.7 0.00 0.00 0.00 45 1013.2
20260508030134 63 159 1.7 2.6 0.00 0.00 0.00 43 1013.4
20260508025629 64 261 0.0 1.7 0.00 0.00 0.00 43 1013.4
20260508025127 66 209 0.9 1.7 0.00 0.00 0.00 40 1013.2
20260508024622 66 304 1.7 5.2 0.00 0.00 0.00 39 1013.1
20260508024120 67 296 2.6 6.1 0.00 0.00 0.00 37 1013.0
20260508023616 68 264 3.5 7.8 0.00 0.00 0.00 37 1013.2
20260508023114 68 274 4.3 10.4 0.00 0.00 0.00 36 1012.9
20260508022609 68 296 3.5 7.0 0.00 0.00 0.00 37 1013.4
20260508022107 68 280 6.1 9.6 0.00 0.00 0.00 36 1012.8
20260508021602 69 312 7.8 8.7 0.00 0.00 0.00 35 1012.8
20260508021058 69 282 7.8 7.8 0.00 0.00 0.00 35 1012.9
20260508020556 70 281 5.2 7.8 0.00 0.00 0.00 35 1012.9
20260508020054 70 281 3.5 7.0 0.00 0.00 0.00 34 1012.9
20260508015551 70 283 1.7 8.7 0.00 0.00 0.00 34 1012.5
20260508015048 71 289 6.1 7.8 0.00 0.00 0.00 33 1012.7
20260508014544 71 278 6.1 8.7 0.00 0.00 0.00 33 1012.8
20260508014040 71 249 4.3 9.6 0.00 0.00 0.00 32 1012.8
20260508013536 71 308 7.8 9.6 0.00 0.00 0.00 32 1012.9
20260508013034 72 290 1.7 7.8 0.00 0.00 0.00 32 1012.6
20260508012531 71 252 5.2 8.7 0.00 0.00 0.00 32 1012.5
20260508012028 71 277 6.1 10.4 0.00 0.00 0.00 31 1012.5
20260508011527 72 256 2.6 10.4 0.00 0.00 0.00 31 1012.5
20260508011024 73 282 3.5 9.6 0.00 0.00 0.00 32 1012.5
20260508010520 73 286 5.2 10.4 0.00 0.00 0.00 31 1012.6
20260508010018 73 265 3.5 5.2 0.00 0.00 0.00 31 1012.5
20260508005514 72 266 4.3 7.8 0.00 0.00 0.00 31 1012.5
20260508005011 72 294 7.0 10.4 0.00 0.00 0.00 31 1012.8
20260508004507 73 268 4.3 8.7 0.00 0.00 0.00 31 1012.6
20260508004004 71 279 7.0 9.6 0.00 0.00 0.00 31 1012.8
20260508003500 72 255 2.6 7.8 0.00 0.00 0.00 32 1012.7
20260508002958 72 275 3.5 7.8 0.00 0.00 0.00 32 1012.8
20260508002454 72 268 11.3 11.3 0.00 0.00 0.00 31 1012.8
20260508001950 73 315 3.5 6.1 0.00 0.00 0.00 32 1012.8
20260508001446 72 284 2.6 8.7 0.00 0.00 0.00 33 1012.8
20260508000943 73 259 2.6 8.7 0.00 0.00 0.00 33 1012.6
20260508000439 72 287 4.3 7.8 0.00 0.00 0.00 33 1012.9
20260507235936 73 312 3.5 8.7 0.00 0.00 0.00 33 1012.4
20260507235433 71 291 2.6 7.8 0.00 0.00 0.00 34 1012.7
20260507234931 73 291 2.6 7.8 0.00 0.00 0.00 34 1012.8
20260507234427 70 340 0.0 3.5 0.00 0.00 0.00 35 1012.8
20260507233923 70 353 3.5 4.3 0.00 0.00 0.00 36 1012.8
20260507233420 69 20 0.9 3.5 0.00 0.00 0.00 35 1013.0
20260507232919 69 348 0.0 3.5 0.00 0.00 0.00 37 1012.8
20260507232415 69 289 0.0 5.2 0.00 0.00 0.00 36 1012.9
20260507231912 69 275 3.5 6.1 0.00 0.00 0.00 36 1012.9
20260507231409 71 343 2.6 6.1 0.00 0.00 0.00 34 1012.9
20260507230905 70 328 3.5 6.1 0.00 0.00 0.00 34 1012.7
20260507230403 71 286 1.7 7.8 0.00 0.00 0.00 33 1012.8
20260507225903 72 355 2.6 6.1 0.00 0.00 0.00 33 1012.6
20260507225359 69 307 5.2 7.0 0.00 0.00 0.00 35 1012.8
20260507224855 69 339 1.7 4.3 0.00 0.00 0.00 34 1012.8
20260507224352 69 315 2.6 4.3 0.00 0.00 0.00 35 1013.0
20260507223848 71 292 5.2 7.8 0.00 0.00 0.00 33 1012.9
20260507223344 72 55 1.7 3.5 0.00 0.00 0.00 33 1013.1
20260507222841 70 341 2.6 5.2 0.00 0.00 0.00 35 1013.0
20260507222338 69 290 2.6 5.2 0.00 0.00 0.00 36 1013.1
20260507221835 70 252 2.6 7.8 0.00 0.00 0.00 36 1013.0
20260507221331 70 273 6.1 8.7 0.00 0.00 0.00 34 1012.9
20260507220827 70 304 2.6 5.2 0.00 0.00 0.00 34 1013.2
20260507220326 71 285 1.7 7.0 0.00 0.00 0.00 34 1013.1
20260507215822 71 350 5.2 7.8 0.00 0.00 0.00 34 1013.0
20260507215319 71 357 1.7 6.1 0.00 0.00 0.00 34 1013.2
20260507214816 70 277 2.6 7.0 0.00 0.00 0.00 36 1013.5
20260507214314 70 273 2.6 8.7 0.00 0.00 0.00 36 1013.4
20260507213808 71 277 5.2 6.1 0.00 0.00 0.00 36 1013.5
20260507213306 72 275 6.1 8.7 0.00 0.00 0.00 35 1013.4
20260507212802 70 288 5.2 8.7 0.00 0.00 0.00 35 1013.6
20260507212258 71 354 3.5 5.2 0.00 0.00 0.00 36 1013.6
20260507211755 69 326 4.3 6.1 0.00 0.00 0.00 38 1013.8
20260507211251 69 340 4.3 5.2 0.00 0.00 0.00 36 1013.7
20260507210748 70 319 1.7 6.1 0.00 0.00 0.00 36 1013.9
20260507210245 71 311 1.7 7.8 0.00 0.00 0.00 38 1013.5
20260507205742 69 283 1.7 5.2 0.00 0.00 0.00 38 1013.9
20260507205239 68 298 4.3 4.3 0.00 0.00 0.00 38 1013.8
20260507204735 68 278 1.7 4.3 0.00 0.00 0.00 38 1013.7
20260507204233 69 340 2.6 5.2 0.00 0.00 0.00 38 1014.0
20260507203730 70 300 2.6 8.7 0.00 0.00 0.00 38 1014.1
20260507203227 68 231 3.5 6.1 0.00 0.00 0.00 38 1013.9
20260507202724 69 247 3.5 4.3 0.00 0.00 0.00 40 1014.1
20260507202220 69 328 2.6 4.3 0.00 0.00 0.00 39 1014.0
20260507201714 68 232 4.3 4.3 0.00 0.00 0.00 40 1013.9
20260507201212 68 327 4.3 5.2 0.00 0.00 0.00 40 1014.2
20260507200708 70 252 3.5 8.7 0.00 0.00 0.00 39 1014.1
20260507200204 70 289 5.2 6.1 0.00 0.00 0.00 38 1014.1
20260507195701 70 20 2.6 3.5 0.00 0.00 0.00 40 1014.0
20260507195158 69 20 5.2 6.1 0.00 0.00 0.00 40 1014.2
20260507194655 69 240 4.3 7.8 0.00 0.00 0.00 41 1014.1
20260507194150 69 344 3.5 5.2 0.00 0.00 0.00 40 1014.4
20260507193647 67 6 2.6 6.1 0.00 0.00 0.00 41 1014.2
20260507193145 67 257 5.2 5.2 0.00 0.00 0.00 41 1014.2
20260507192641 67 283 3.5 9.6 0.00 0.00 0.00 39 1014.2
20260507192138 68 329 4.3 7.0 0.00 0.00 0.00 40 1014.2
20260507191633 68 353 0.0 2.6 0.00 0.00 0.00 40 1014.4
20260507191130 69 244 3.5 6.1 0.00 0.00 0.00 42 1014.2
20260507190628 69 278 2.6 2.6 0.00 0.00 0.00 41 1014.1
20260507190127 67 270 0.0 4.3 0.00 0.00 0.00 46 1014.2
20260507185624 66 200 0.9 7.0 0.00 0.00 0.00 42 1014.5
20260507185120 66 185 0.0 4.3 0.00 0.00 0.00 42 1014.5
20260507184619 67 242 4.3 4.3 0.00 0.00 0.00 41 1014.5
20260507184116 67 98 0.9 4.3 0.00 0.00 0.00 42 1014.5
20260507183612 65 329 4.3 4.3 0.00 0.00 0.00 43 1014.4
20260507183109 66 279 1.7 4.3 0.00 0.00 0.00 45 1014.4
20260507182605 66 290 2.6 3.5 0.00 0.00 0.00 43 1014.4
20260507182101 65 259 2.6 6.1 0.00 0.00 0.00 47 1014.5
20260507181559 66 68 1.7 4.3 0.00 0.00 0.00 44 1014.6
20260507181055 64 78 2.6 4.3 0.00 0.00 0.00 45 1014.7
20260507180551 64 53 1.7 2.6 0.00 0.00 0.00 44 1014.9
20260507180048 64 276 4.3 5.2 0.00 0.00 0.00 45 1015.0
20260507175544 65 294 2.6 7.0 0.00 0.00 0.00 44 1014.7
20260507175042 64 261 1.7 5.2 0.00 0.00 0.00 45 1014.7
20260507174539 64 274 4.3 6.1 0.00 0.00 0.00 45 1014.8
20260507174037 64 250 3.5 7.0 0.00 0.00 0.00 46 1014.9
20260507173533 64 358 3.5 7.0 0.00 0.00 0.00 46 1014.8
20260507173031 64 300 2.6 7.0 0.00 0.00 0.00 46 1014.9
20260507172526 63 289 2.6 7.0 0.00 0.00 0.00 45 1015.4
20260507172024 63 320 4.3 4.3 0.00 0.00 0.00 47 1015.2
20260507171519 64 358 3.5 5.2 0.00 0.00 0.00 45 1015.1
20260507171017 63 284 5.2 8.7 0.00 0.00 0.00 46 1015.4
20260507170513 62 321 2.6 5.2 0.00 0.00 0.00 47 1015.5
20260507170010 63 285 3.5 7.0 0.00 0.00 0.00 46 1015.4
20260507165506 63 326 2.6 5.2 0.00 0.00 0.00 48 1015.4
20260507165003 62 306 2.6 5.2 0.00 0.00 0.00 48 1015.4
20260507164459 62 256 4.3 7.0 0.00 0.00 0.00 48 1015.4
20260507163955 62 288 5.2 7.8 0.00 0.00 0.00 48 1015.4
20260507163453 62 337 4.3 7.8 0.00 0.00 0.00 48 1015.1
20260507162950 63 300 2.6 5.2 0.00 0.00 0.00 45 1015.1
20260507162445 63 321 2.6 5.2 0.00 0.00 0.00 49 1014.9
20260507161943 62 286 0.0 4.3 0.00 0.00 0.00 50 1015.4
20260507161439 61 301 2.6 11.3 0.00 0.00 0.00 49 1015.2
20260507160936 63 309 6.1 7.8 0.00 0.00 0.00 47 1015.4
20260507160432 62 274 7.0 7.0 0.00 0.00 0.00 48 1015.1
20260507155927 61 270 1.7 6.1 0.00 0.00 0.00 48 1015.2
20260507155424 61 298 3.5 4.3 0.00 0.00 0.00 47 1015.4
20260507154921 62 282 2.6 6.1 0.00 0.00 0.00 47 1015.2
20260507154418 61 277 4.3 6.1 0.00 0.00 0.00 47 1015.2
20260507153915 61 279 5.2 6.1 0.00 0.00 0.00 47 1015.1
20260507153411 61 294 2.6 7.8 0.00 0.00 0.00 46 1015.0
20260507152908 62 265 3.5 4.3 0.00 0.00 0.00 47 1015.5
20260507152404 61 287 3.5 6.1 0.00 0.00 0.00 46 1015.2
20260507151900 61 301 3.5 5.2 0.00 0.00 0.00 45 1015.6
20260507151356 60 278 1.7 6.1 0.00 0.00 0.00 47 1015.4
20260507150854 60 278 3.5 6.1 0.00 0.00 0.00 47 1015.4
20260507150350 60 236 1.7 3.5 0.00 0.00 0.00 49 1015.5
20260507145846 59 270 0.0 1.7 0.00 0.00 0.00 51 1015.5
20260507145343 59 239 1.7 2.6 0.00 0.00 0.00 51 1015.6
20260507144840 59 220 1.7 3.5 0.00 0.00 0.00 50 1015.5
20260507144337 59 232 1.7 2.6 0.00 0.00 0.00 51 1015.2
20260507143834 59 241 2.6 2.6 0.00 0.00 0.00 51 1015.1
20260507143331 59 264 0.0 1.7 0.00 0.00 0.00 52 1015.0
20260507142827 59 258 0.0 2.6 0.00 0.00 0.00 51 1015.1
20260507142324 59 232 0.0 2.6 0.00 0.00 0.00 50 1015.0
20260507141820 60 174 0.9 1.7 0.00 0.00 0.00 49 1015.1
20260507141317 59 180 0.0 1.7 0.00 0.00 0.00 53 1015.0
20260507140814 59 277 2.6 2.6 0.00 0.00 0.00 49 1014.8
20260507140310 59 257 3.5 3.5 0.00 0.00 0.00 50 1014.9
20260507135808 59 188 0.0 2.6 0.00 0.00 0.00 51 1014.8
20260507135306 59 196 1.7 4.3 0.00 0.00 0.00 50 1014.8
20260507134802 58 229 2.6 6.1 0.00 0.00 0.00 52 1014.7
20260507134258 57 283 0.9 7.0 0.00 0.00 0.00 53 1014.5
20260507133754 57 239 4.3 6.1 0.00 0.00 0.00 52 1014.6
20260507133250 57 199 2.6 6.1 0.00 0.00 0.00 53 1014.6
20260507132748 57 283 0.9 3.5 0.00 0.00 0.00 53 1014.7
20260507132245 57 254 4.3 7.0 0.00 0.00 0.00 54 1014.4
20260507131742 56 212 0.0 4.3 0.00 0.00 0.00 56 1014.5
20260507131239 55 240 1.7 4.3 0.00 0.00 0.00 59 1014.1
20260507130735 52 110 1.7 2.6 0.00 0.00 0.00 66 1014.4
20260507130233 50 93 3.5 4.3 0.00 0.00 0.00 70 1014.1
20260507125732 49 103 3.5 3.5 0.00 0.00 0.00 72 1014.4
20260507125229 49 104 2.6 4.3 0.00 0.00 0.00 71 1014.5
20260507124726 49 119 3.5 3.5 0.00 0.00 0.00 73 1014.4
20260507124222 49 110 2.6 4.3 0.00 0.00 0.00 72 1014.2
20260507123721 49 113 2.6 3.5 0.00 0.00 0.00 72 1014.2
20260507123218 49 114 3.5 3.5 0.00 0.00 0.00 71 1014.1
20260507122713 50 105 5.2 6.1 0.00 0.00 0.00 68 1014.1
20260507122209 52 102 4.3 5.2 0.00 0.00 0.00 65 1013.9
20260507121705 49 64 5.2 5.2 0.00 0.00 0.00 69 1014.0